Wind_Speed
22 21 22 22 24 27 27 27 27 26 26 25 24 24 24 24 25 25 25 25 25 25 25 26 26 26 24 23 22 22 23 23 22 14 10 23 32 29 27 23 15 12 15 14 19 19 13 12 13 14 11 7 4 2 7 7 5 4 2 3 4 5 4 3 4 3 4 8 10 11 12 14 12 8 5 7 7 12 10 4 7 5 6 11 15 23 27 27
22 22 23 23 26 29 29 29 28 27 27 26 25 25 25 25 26 26 26 26 26 25 25 26 26 26 24 22 21 21 22 22 19 15 22 26 25 25 28 27 23 18 17 19 23 21 13 10 12 11 7 4 4 3 5 6 7 6 3 3 5 5 3 2 3 4 2 7 10 11 14 15 14 11 8 8 9 10 10 6 8 9 10 13 18 25 25 26
23 23 23 24 29 30 29 29 28 28 27 27 27 27 27 27 27 27 27 26 26 26 26 26 26 25 23 21 19 19 18 15 10 13 19 15 12 16 18 21 25 24 21 19 21 22 17 16 15 10 5 4 4 4 5 4 6 7 4 4 7 6 4 4 5 6 4 5 11 13 13 13 13 11 8 10 12 10 9 10 10 10 12 14 16 21 24 24
23 24 24 27 29 29 28 28 28 28 29 29 29 29 29 30 30 29 28 27 26 26 26 26 25 23 21 19 17 15 11 7 6 9 7 7 11 12 12 18 24 26 22 18 17 20 20 18 15 9 6 4 3 3 5 5 3 4 6 7 6 3 5 7 7 8 4 5 12 13 11 11 12 10 9 14 12 5 8 12 15 17 17 18 17 19 22 22
24 25 26 27 28 27 27 27 28 30 31 32 31 31 32 32 32 30 29 28 27 26 26 25 23 22 20 17 14 11 5 3 5 6 3 6 12 9 10 19 24 26 22 17 15 16 15 14 12 7 4 4 3 3 6 9 5 3 7 10 8 3 6 8 5 7 3 4 9 13 12 11 11 8 12 18 14 9 12 13 16 21 21 21 20 19 19 19
25 26 26 27 28 28 28 27 30 33 33 33 33 33 34 34 33 32 30 29 27 26 25 24 22 20 17 13 8 4 0 2 9 7 4 4 13 13 6 20 23 24 21 18 16 13 10 10 10 7 4 4 6 7 6 7 7 6 7 8 9 6 9 9 4 7 3 4 9 13 12 12 11 9 14 18 13 11 14 14 15 18 21 23 21 18 18 18
26 26 27 28 28 28 30 32 35 36 35 34 35 35 35 35 34 32 31 29 28 26 25 23 20 18 14 7 2 1 1 7 17 15 12 13 18 17 4 21 22 23 22 17 13 9 8 9 9 7 5 4 6 10 7 4 7 8 8 7 9 8 10 12 8 8 7 9 10 11 11 14 15 10 12 12 5 9 14 14 15 16 19 22 20 18 17 17
28 28 29 31 31 32 35 37 38 37 36 36 36 36 36 36 34 33 32 30 28 26 24 21 17 15 10 3 0 3 1 14 23 17 14 12 14 14 6 20 22 24 24 21 15 9 8 9 9 6 5 7 4 5 5 4 6 9 10 8 9 9 10 13 11 10 11 11 9 11 13 17 17 12 13 11 5 12 15 16 16 16 17 18 19 20 17 16
30 31 33 34 35 37 38 39 39 39 38 38 38 38 37 36 34 34 32 30 29 25 23 19 14 9 4 0 1 2 7 14 15 8 6 2 3 7 8 18 24 26 23 23 20 12 8 7 9 6 4 6 5 5 4 4 6 8 10 10 9 11 11 11 11 12 12 9 10 14 15 15 12 10 7 6 10 14 16 17 17 17 17 16 16 18 18 16
30 33 36 37 37 38 39 39 40 40 40 40 40 39 38 36 35 34 32 31 28 23 21 16 10 3 3 3 3 3 10 6 1 3 8 7 1 5 10 17 25 26 19 16 17 12 9 8 7 6 2 3 5 7 5 5 6 6 8 9 10 12 12 9 10 12 10 8 13 17 15 11 9 9 5 4 13 16 17 18 17 17 17 16 15 15 16 16
29 34 37 37 38 39 39 40 41 42 42 42 42 41 39 37 35 34 32 30 26 22 18 12 7 5 6 4 4 6 10 4 5 2 8 10 3 6 13 18 24 26 18 11 14 17 17 12 8 4 3 3 5 5 5 6 5 6 6 8 12 11 9 8 10 10 8 7 12 14 9 7 9 10 9 11 16 18 19 19 18 17 15 15 16 14 12 13
29 35 38 37 39 40 40 42 43 43 43 44 43 42 40 37 35 33 32 29 25 20 14 9 6 9 7 2 8 19 18 10 9 7 9 13 11 7 11 18 23 27 22 11 12 23 24 16 10 6 5 3 2 3 4 4 2 5 5 6 11 8 7 8 8 8 10 7 10 13 7 6 10 9 11 15 17 18 20 19 18 16 14 14 14 12 10 12
30 35 38 38 40 41 42 44 44 44 44 44 44 43 39 36 34 33 31 28 22 15 10 8 9 12 7 2 11 22 23 19 16 18 23 23 17 11 11 18 22 26 25 17 15 24 27 20 14 10 5 2 2 2 3 4 3 5 3 3 6 7 7 7 5 10 13 8 14 15 4 7 9 7 13 15 17 19 18 18 17 14 13 13 12 11 11 12
31 34 37 39 41 42 44 44 45 46 45 46 45 41 36 35 34 30 26 22 15 9 9 9 12 12 5 7 10 11 17 22 24 27 27 22 15 11 10 16 20 23 25 21 18 19 25 22 13 7 4 4 5 4 7 6 2 3 3 3 2 3 5 6 2 10 12 7 16 15 6 8 6 8 15 16 19 21 18 17 17 14 13 12 12 12 12 12
33 35 38 40 42 44 45 45 47 46 46 48 43 36 35 33 27 20 15 10 5 8 11 12 14 9 1 10 12 10 12 16 23 30 30 24 15 9 12 17 20 24 24 23 19 12 16 17 9 4 3 4 3 4 6 4 2 1 2 4 1 3 4 6 5 11 14 7 13 12 4 5 5 10 16 16 19 20 19 18 16 16 15 13 12 12 12 12
35 36 40 41 43 45 45 47 48 46 48 46 37 34 31 23 14 10 7 3 7 12 15 11 12 7 2 7 7 5 7 10 16 21 22 23 19 15 16 17 16 20 21 23 20 11 9 11 5 4 4 3 4 3 4 4 4 2 3 5 3 4 3 4 6 9 14 9 10 9 4 3 3 11 15 15 19 18 17 18 17 17 15 15 12 11 12 11
36 38 41 42 44 45 46 48 47 48 48 39 34 31 20 11 7 10 13 12 12 15 12 5 8 6 5 7 6 4 6 10 13 11 11 18 24 22 15 9 8 12 14 16 14 8 5 6 3 3 3 3 4 4 3 5 5 2 2 4 4 5 3 2 6 5 9 11 11 7 6 6 7 14 16 16 19 17 16 18 18 17 15 14 12 11 12 12
35 38 41 43 45 45 48 49 48 50 44 33 32 25 11 8 7 14 18 15 11 10 5 2 4 3 5 7 5 3 3 5 9 9 10 12 21 26 16 7 5 7 5 5 5 4 4 3 3 3 3 5 5 6 6 6 4 3 4 3 4 4 3 4 5 3 6 9 10 7 6 8 8 15 17 16 19 17 17 18 17 17 16 15 13 13 13 13
34 38 41 45 46 46 50 48 49 50 37 31 31 15 9 9 4 8 9 8 5 2 1 1 5 2 4 6 6 6 8 9 12 10 8 11 16 20 15 8 5 7 5 1 3 6 5 2 4 6 6 7 6 7 9 6 3 5 5 4 5 5 4 5 4 5 7 7 8 8 8 9 11 15 17 16 17 15 15 15 14 14 14 14 13 13 14 15
36 40 41 45 45 48 50 47 51 45 28 31 31 11 6 9 2 1 5 6 6 8 9 8 9 8 11 10 3 4 11 9 8 5 6 12 15 12 7 4 3 4 5 5 4 4 6 5 6 8 6 6 6 6 8 7 6 6 4 4 5 5 7 3 3 8 6 8 8 7 8 11 15 18 18 17 16 14 14 14 14 14 14 14 15 15 16 16
39 39 40 43 46 49 49 48 50 35 21 29 25 7 4 7 4 5 10 11 11 11 15 16 15 16 18 16 7 5 8 5 6 6 7 10 14 12 5 5 5 5 6 8 5 1 5 8 9 7 6 6 6 6 6 7 8 7 5 6 6 5 8 4 3 7 3 7 8 5 6 10 16 18 17 17 17 17 17 18 17 17 16 15 16 18 17 15
39 38 41 43 46 49 47 49 44 23 20 28 17 4 3 7 9 11 9 10 12 11 16 19 17 19 21 24 23 8 3 5 10 11 8 9 11 10 7 8 8 7 6 6 5 3 5 9 10 7 6 6 6 6 6 7 7 6 5 5 6 6 7 4 4 6 3 5 5 5 7 10 14 17 17 19 20 18 19 21 20 20 19 16 16 17 16 15
39 40 43 43 47 49 47 49 34 16 26 31 12 1 6 14 19 18 7 7 12 9 14 17 16 18 19 20 19 12 6 8 9 11 7 12 10 9 9 11 10 7 6 7 8 7 6 7 9 8 7 7 6 6 6 6 5 6 5 4 7 8 4 3 4 4 5 6 6 7 6 6 8 10 13 18 19 15 17 20 18 18 20 19 20 18 17 17
41 43 43 45 48 47 49 45 22 17 35 28 6 3 16 24 24 21 7 5 9 6 11 16 14 14 16 12 12 17 11 8 9 11 10 12 7 7 10 12 11 8 8 9 11 10 8 5 7 9 8 9 9 8 7 6 5 6 7 7 8 10 7 6 4 3 1 4 4 7 3 1 7 10 11 13 14 12 13 15 14 15 17 18 19 18 18 18
42 42 43 47 47 49 52 33 12 26 38 17 2 14 28 29 25 19 6 2 7 5 6 10 8 9 11 10 14 16 8 6 11 11 9 13 10 6 7 8 8 10 12 10 9 10 10 6 7 10 9 10 10 9 9 7 5 7 8 10 12 12 7 6 3 5 3 5 2 7 4 4 6 12 13 11 12 13 11 14 16 16 15 15 15 16 17 17
42 41 43 45 46 54 45 15 13 34 28 6 9 28 33 30 29 19 3 0 6 4 3 3 3 7 9 9 11 11 4 6 12 12 9 13 14 8 5 5 4 10 12 8 5 5 7 6 7 10 10 11 11 9 10 8 5 7 7 8 11 11 7 6 1 2 2 5 4 7 7 4 5 10 13 12 15 17 14 15 18 16 15 15 14 15 16 16
41 41 43 43 46 50 29 8 22 29 12 6 21 34 33 31 31 16 1 2 5 3 4 1 1 7 9 8 12 11 3 4 5 11 13 13 13 8 6 7 5 7 8 5 4 4 7 10 9 10 10 10 10 9 10 9 7 8 4 5 8 8 7 8 4 4 5 4 4 4 4 3 4 9 14 16 17 17 15 16 18 17 17 18 17 17 18 18
40 42 42 43 47 43 19 12 23 18 10 16 27 34 34 32 24 6 2 3 3 2 3 1 2 6 6 8 15 9 3 3 4 8 15 15 10 6 8 10 9 9 9 8 7 4 8 12 14 13 10 9 9 9 10 10 8 8 4 5 7 7 7 6 5 5 4 3 5 6 4 3 4 6 11 15 16 16 17 19 20 19 19 19 19 19 19 19
40 42 42 44 47 38 21 15 18 15 16 23 29 34 33 25 11 3 2 2 3 2 1 2 2 3 4 7 13 7 3 1 0 2 11 13 9 4 5 10 10 9 10 12 10 4 6 11 14 13 10 9 7 8 10 11 10 7 4 5 6 5 4 4 5 4 2 3 7 9 5 4 6 4 8 10 13 16 17 18 18 20 21 20 19 20 19 17
41 42 43 44 43 37 28 22 18 16 21 25 29 31 24 13 2 4 2 4 3 3 1 1 2 2 5 8 8 8 5 4 4 3 8 8 7 3 1 4 7 5 6 10 11 8 4 4 9 10 10 9 7 7 9 11 11 6 3 4 7 5 2 1 3 4 2 4 8 12 9 7 6 5 7 10 14 17 16 15 16 18 20 20 19 19 19 17
41 42 43 42 38 31 22 18 19 22 24 25 25 21 11 3 3 3 6 3 3 3 1 4 5 4 2 4 3 5 5 5 3 5 6 5 6 5 2 4 5 3 4 6 8 9 7 4 4 5 8 10 8 8 9 9 11 7 4 4 4 5 3 3 1 3 4 7 7 11 10 8 8 7 6 11 17 21 19 18 20 21 22 21 20 19 18 18
41 41 43 41 35 27 16 14 25 27 22 21 18 10 2 1 1 4 5 4 3 1 3 3 4 6 5 4 3 4 5 4 2 6 9 9 8 9 9 7 7 6 7 8 6 6 8 7 5 3 6 11 9 7 7 6 9 7 5 5 4 3 3 5 4 2 6 7 6 9 8 7 8 7 9 14 18 21 21 20 22 25 24 22 21 20 17 16
41 42 43 40 33 25 16 18 28 26 21 18 10 2 5 2 5 5 5 4 1 2 5 4 8 9 6 4 3 4 3 3 3 3 8 11 9 11 12 9 8 8 5 7 7 5 5 6 8 7 5 7 11 9 7 6 7 9 7 6 6 5 5 6 5 3 4 5 5 7 7 4 5 6 11 15 18 22 22 21 22 24 25 24 23 21 18 17
41 42 41 38 26 17 16 22 28 24 18 12 3 2 3 5 4 2 5 6 4 5 7 7 11 9 4 3 4 4 3 5 4 2 5 9 9 9 11 10 11 7 4 5 6 6 7 6 8 12 7 7 12 11 9 7 6 8 7 6 7 6 5 4 3 3 5 5 5 3 5 5 5 6 11 15 18 20 21 21 22 21 22 22 20 19 18 18
40 40 37 32 19 14 17 24 28 20 10 5 0 3 5 6 2 0 2 3 4 5 9 9 7 5 3 3 3 2 3 4 5 5 4 7 9 9 10 11 12 8 5 5 4 5 10 8 7 10 8 9 11 9 9 8 5 6 6 7 9 6 5 3 3 5 4 3 4 3 4 5 5 5 7 13 16 17 19 21 20 18 16 14 14 16 17 17
40 39 33 25 16 17 22 27 26 14 3 3 1 5 5 3 1 1 1 3 3 6 11 8 3 3 4 3 3 7 9 5 1 3 4 5 8 10 10 8 12 13 8 6 4 3 7 7 4 6 6 9 11 9 10 10 6 4 5 8 7 7 8 6 5 2 1 3 5 2 3 4 2 5 6 9 12 14 17 18 18 16 13 13 13 15 17 17
36 35 26 17 16 23 28 30 24 8 1 2 3 5 2 2 1 1 1 2 2 6 7 4 3 3 3 3 3 7 10 7 4 4 2 4 5 9 11 7 10 15 11 7 4 2 5 5 3 8 10 11 11 9 9 10 9 5 5 7 4 4 7 5 3 3 3 6 5 2 5 5 3 5 5 6 10 13 15 16 16 15 13 13 15 16 18 19
30 27 16 9 17 29 32 29 17 1 4 1 5 5 3 2 3 4 3 3 3 4 3 0 2 2 2 3 4 7 10 5 4 6 3 3 3 6 11 8 9 13 13 9 5 3 4 4 6 8 12 9 7 8 8 8 10 7 5 8 6 5 7 4 4 6 7 6 5 3 4 5 6 5 5 8 11 12 14 15 15 15 14 14 15 18 19 19
21 15 6 5 21 32 32 24 7 5 3 1 4 4 3 3 5 6 6 6 3 2 2 2 2 2 3 4 5 7 7 5 5 5 2 2 4 3 2 5 8 12 17 14 7 4 5 4 6 6 11 9 5 7 8 9 10 5 3 6 5 4 6 6 5 4 5 5 4 3 3 4 6 6 8 11 12 13 14 14 15 17 17 16 17 17 17 16
12 5 3 9 25 33 31 17 2 5 1 2 3 3 4 5 7 7 7 6 2 1 2 2 2 3 3 5 8 6 4 5 6 4 2 3 5 7 9 5 4 4 13 18 14 7 4 5 6 4 5 8 5 6 10 11 10 7 5 7 6 2 3 4 4 3 4 5 3 3 5 6 6 5 9 11 12 13 14 14 15 17 18 18 19 18 15 15
7 1 3 15 27 31 26 10 3 1 1 2 2 4 6 7 7 9 10 9 5 2 2 4 5 4 4 5 7 5 4 6 5 4 3 4 4 2 8 11 9 8 5 12 13 10 5 3 6 6 5 6 6 7 11 12 11 10 8 8 8 5 4 4 6 2 2 4 5 4 6 8 5 5 8 9 10 12 13 14 14 14 17 19 19 18 16 16
3 2 9 20 27 25 15 4 2 4 1 3 7 6 8 7 7 9 10 10 8 5 4 4 6 6 5 5 6 6 5 5 6 5 4 4 4 2 9 17 12 7 5 4 6 8 7 4 6 9 7 7 8 9 10 13 13 11 9 7 6 5 5 7 8 3 2 3 3 3 5 8 6 6 9 9 10 11 11 13 13 13 15 17 18 16 15 16
1 6 13 19 24 19 7 3 4 5 3 6 9 9 9 7 6 8 7 8 7 4 3 3 4 4 3 2 3 4 4 3 5 5 4 5 3 3 11 19 16 10 6 4 5 4 4 4 6 8 6 6 7 7 4 7 10 9 9 8 8 9 8 7 5 4 4 4 3 3 6 7 5 5 8 9 7 6 7 10 12 13 13 15 17 15 14 15
3 6 7 14 22 14 3 3 4 4 5 8 9 9 9 6 7 9 9 9 7 4 5 4 2 3 3 2 2 2 3 3 2 3 3 4 4 7 13 19 15 9 6 5 6 5 3 3 5 6 6 6 6 6 5 4 6 5 6 10 13 14 10 5 2 3 4 6 7 6 7 6 4 3 3 5 4 4 7 8 11 12 11 12 12 11 11 12
4 3 3 10 18 10 3 3 4 4 7 9 9 9 8 7 7 9 10 10 7 5 6 5 4 5 4 3 3 2 3 2 1 4 4 4 5 6 12 17 12 7 7 10 10 4 3 3 4 6 9 10 8 7 7 5 4 4 6 11 14 15 15 8 3 4 6 5 6 6 5 5 6 6 5 5 6 5 8 7 8 9 10 9 8 7 8 10
3 3 2 5 8 4 2 3 4 5 7 8 7 6 8 9 9 9 9 8 7 9 7 6 5 5 5 7 6 4 4 4 4 4 4 6 5 4 9 13 10 8 12 16 15 7 3 3 5 7 9 11 9 7 6 6 7 8 9 10 11 14 17 11 5 6 6 4 5 7 6 4 6 6 6 7 7 8 9 7 7 8 9 9 9 9 9 9
1 3 3 4 4 3 4 3 4 6 7 7 5 5 8 9 8 7 6 5 9 11 7 4 5 7 6 7 5 4 5 6 6 5 4 5 6 7 9 8 7 11 16 15 13 7 2 3 6 7 9 11 11 11 10 10 11 13 13 12 11 12 15 15 12 9 8 7 7 8 8 7 8 8 8 8 7 9 11 9 8 9 9 10 10 11 12 13
1 2 2 3 3 3 4 5 7 9 9 8 5 5 8 9 7 7 5 5 9 9 5 4 8 10 10 8 5 4 5 6 4 4 5 5 7 9 9 5 5 12 16 12 9 6 1 4 5 6 11 14 13 14 13 12 10 11 14 15 14 13 16 18 17 11 12 10 10 8 10 11 9 8 10 10 9 10 11 9 7 7 8 9 9 10 12 14
2 2 3 2 2 3 5 8 10 10 10 9 5 5 7 8 9 9 6 6 7 5 4 6 9 12 13 11 6 3 4 5 3 4 6 5 6 8 7 5 4 8 12 10 8 5 2 4 5 8 12 14 13 15 16 14 11 10 12 15 17 16 18 19 16 13 14 14 10 10 13 13 10 9 11 12 10 8 6 6 5 6 8 9 10 11 12 14
1 1 3 2 2 4 5 6 7 6 7 8 6 5 6 6 8 10 8 8 9 5 4 7 11 12 11 11 8 6 6 7 6 6 7 7 6 4 3 3 3 6 10 8 5 5 3 4 6 8 9 11 11 12 15 16 14 12 11 11 15 18 19 18 15 11 11 12 8 9 11 10 7 8 10 9 6 2 4 8 8 8 9 9 10 12 13 14
4 3 3 3 4 5 3 3 3 4 5 4 3 5 6 6 8 9 9 10 10 7 5 8 12 10 8 9 10 10 9 8 8 9 8 8 6 4 3 3 5 7 8 5 5 4 2 3 6 6 5 7 7 7 14 17 13 12 14 14 15 17 15 14 12 10 11 13 9 6 7 7 8 7 7 7 4 2 5 9 7 6 6 8 10 12 12 12
4 4 2 2 3 3 3 3 3 3 4 3 4 7 8 9 10 8 6 7 7 6 7 9 10 8 6 8 10 11 10 10 11 12 9 9 10 8 8 8 7 6 5 4 5 3 2 3 5 4 4 7 9 11 11 12 9 11 16 17 16 14 11 10 8 10 14 15 11 9 9 9 8 7 7 8 7 5 2 3 4 5 4 5 8 8 9 11
Wind_Direction
354 353 351 352 354 356 355 354 351 349 347 345 344 343 342 342 341 340 340 338 338 336 335 333 332 330 327 329 327 319 317 315 311 301 255 262 269 266 262 258 250 225 203 180 161 154 154 171 178 174 173 185 208 204 190 207 213 205 200 209 257 246 237 224 210 225 167 159 158 159 151 143 152 164 123 105 116 129 134 97 95 75 76 118 129 139 148 150
351 350 349 349 353 355 353 351 348 345 344 342 342 341 340 341 338 338 338 337 337 335 335 333 331 329 328 331 325 319 321 315 308 283 265 275 280 272 264 254 240 220 192 173 164 156 154 178 180 174 174 186 201 186 176 187 192 209 207 198 240 232 232 255 252 279 194 160 158 159 158 153 153 152 144 131 139 137 121 105 101 95 103 119 132 143 151 152
350 348 346 348 352 352 348 346 343 341 340 339 340 339 339 339 336 336 335 336 336 335 335 332 330 328 329 331 323 321 322 319 307 275 276 290 292 274 258 240 228 217 203 188 179 174 174 178 174 168 179 213 214 188 189 189 184 202 206 228 242 228 257 276 254 263 250 167 149 157 162 152 150 148 151 144 147 155 143 140 133 131 138 137 143 150 153 154
348 346 346 348 348 346 343 341 339 339 340 339 339 338 338 337 335 334 333 334 333 334 333 331 330 325 330 330 320 318 321 323 279 260 290 325 312 290 245 218 210 209 207 199 192 187 180 171 170 172 178 216 235 207 221 220 189 189 198 226 236 197 261 258 237 251 244 167 150 152 157 149 152 154 152 145 143 174 181 171 159 153 153 148 153 157 157 158
346 344 345 345 343 340 339 338 337 340 340 339 338 336 336 334 333 332 331 331 331 332 331 331 328 324 331 328 316 317 329 340 284 267 304 347 346 325 224 198 192 198 200 191 186 183 174 157 160 180 189 209 217 220 234 221 212 239 218 231 245 208 256 258 227 241 228 157 158 151 158 155 154 162 160 154 156 192 193 183 166 155 156 155 157 159 160 162
345 343 343 343 341 339 339 339 340 341 340 337 337 336 334 332 330 329 329 329 329 329 329 330 326 325 330 325 322 320 237 272 291 285 270 325 346 342 198 177 176 187 191 180 169 169 173 155 159 183 196 205 211 216 228 209 198 244 250 242 251 236 250 263 234 233 208 160 178 164 161 152 156 176 174 169 173 188 176 166 163 156 154 154 155 159 163 165
345 344 344 343 341 340 341 343 342 342 339 337 336 334 332 330 328 327 326 326 326 327 328 328 322 325 329 331 347 343 114 256 276 279 278 283 297 311 178 162 168 177 181 172 162 165 177 175 177 179 189 207 216 222 231 225 200 225 256 258 257 246 248 259 249 234 207 189 192 164 150 158 172 177 179 189 173 153 151 147 154 151 151 152 156 164 167 167
345 346 345 345 344 344 345 344 343 341 339 337 335 333 331 328 326 324 323 323 323 324 325 324 319 322 328 337 271 327 244 249 271 289 297 285 281 293 191 162 168 173 173 174 177 172 168 185 194 177 192 212 221 234 216 225 230 227 245 259 262 255 251 257 256 241 217 201 182 156 160 177 181 164 173 195 136 134 140 139 146 147 153 158 162 166 167 169
346 347 348 348 348 347 346 344 343 341 338 337 334 332 330 327 325 322 321 319 318 320 321 318 313 317 324 163 104 307 262 254 272 316 346 332 259 277 204 172 173 174 175 185 187 175 170 188 201 194 205 223 250 272 214 202 242 228 234 250 259 265 263 261 262 241 219 199 165 160 176 188 177 143 165 186 136 137 137 140 148 152 160 165 168 168 168 171
345 348 349 349 349 347 345 344 341 339 338 336 334 331 328 325 324 320 318 316 314 315 315 309 299 291 173 183 121 241 261 253 224 54 40 42 94 223 201 185 180 177 177 189 188 177 184 190 188 201 242 256 250 255 234 218 241 237 242 259 260 267 271 262 258 238 207 184 170 168 177 183 165 148 172 172 141 140 139 147 153 157 165 168 171 171 170 173
344 347 348 348 348 345 343 342 340 339 337 335 333 330 327 325 322 319 317 313 309 309 304 292 264 200 178 182 145 219 252 238 200 193 35 23 356 217 212 203 188 183 178 178 194 193 199 197 166 171 223 226 247 267 250 219 228 249 254 277 273 274 280 253 243 229 186 181 176 158 150 159 171 178 180 163 150 147 146 152 158 163 170 169 172 174 172 175
342 345 347 347 346 344 343 342 340 339 336 334 331 328 326 324 322 319 315 307 302 301 288 262 222 181 163 161 216 234 247 246 229 243 303 314 302 271 241 220 204 197 187 169 201 206 206 201 173 191 221 190 243 283 255 229 243 265 251 276 285 299 294 250 229 203 176 181 156 129 106 163 193 200 171 158 153 150 150 154 161 166 171 171 173 175 176 175
340 343 346 346 345 344 343 342 341 339 337 334 330 328 326 325 324 318 309 300 294 289 259 224 190 170 162 219 236 243 253 258 263 275 280 284 282 276 254 230 220 210 200 192 208 213 211 201 182 206 236 208 234 254 289 309 311 290 263 233 288 324 304 270 229 187 181 171 148 142 155 200 211 197 160 156 153 149 153 159 163 167 171 174 175 177 179 178
339 340 343 344 345 344 342 342 341 339 337 334 330 327 327 328 323 313 304 296 285 255 216 188 168 160 175 253 258 263 265 269 274 271 266 268 265 259 242 225 221 215 211 213 221 223 213 200 188 208 245 229 246 310 317 319 299 295 291 241 283 297 286 304 291 176 178 171 158 161 193 208 213 179 162 161 158 154 159 165 165 168 172 176 178 179 183 183
339 340 342 343 344 344 343 342 341 340 338 334 331 329 331 329 321 317 313 294 251 187 166 151 160 159 257 271 276 275 257 262 262 256 254 254 246 235 225 214 214 216 218 223 231 238 208 188 183 215 250 226 220 303 303 311 310 301 259 281 304 220 261 325 312 182 177 178 170 168 177 208 201 175 169 164 164 160 161 168 168 170 173 176 180 181 185 187
340 342 344 344 345 344 342 342 341 342 339 335 334 332 334 334 334 355 13 89 132 139 136 141 172 175 289 275 290 279 235 240 250 254 253 242 228 221 217 205 208 214 218 228 235 245 196 165 167 207 215 220 173 218 288 311 310 330 207 251 247 230 270 329 305 215 181 164 180 180 151 187 188 174 175 167 169 166 163 170 171 173 175 177 181 183 184 184
341 342 344 345 345 343 342 341 342 343 339 337 338 337 343 359 23 63 79 92 106 122 120 129 170 176 265 269 290 274 236 237 243 259 261 239 224 218 206 182 196 201 210 230 237 243 195 168 189 199 193 210 168 164 246 255 257 288 227 241 239 233 256 288 304 259 181 165 183 179 153 183 176 168 176 174 173 170 168 174 175 175 177 178 181 183 185 185
340 341 344 345 343 343 343 341 342 344 340 339 343 343 10 41 68 95 95 92 95 115 103 38 150 174 264 255 271 276 275 273 273 280 267 241 219 211 198 174 179 160 169 239 234 205 197 201 195 201 214 204 182 169 207 229 207 212 220 235 262 252 235 235 275 253 176 184 184 156 159 186 171 168 176 179 177 176 177 176 176 177 177 178 181 184 187 189
340 342 345 344 343 343 342 341 343 343 339 344 351 0 46 37 77 109 91 79 75 141 240 221 173 197 279 256 253 281 306 308 304 290 244 212 203 203 200 191 163 134 137 186 225 197 180 193 193 208 223 203 202 196 209 234 192 196 205 211 256 268 250 208 249 252 177 191 201 170 173 173 166 176 180 181 180 181 180 176 178 180 179 180 183 188 189 191
342 344 344 344 343 341 341 341 342 343 343 350 354 7 42 16 6 330 342 319 268 243 253 243 217 242 279 283 291 337 315 294 282 280 202 189 176 174 196 188 133 147 167 172 208 203 164 196 218 210 211 200 210 206 211 236 235 225 217 237 250 257 267 205 220 263 184 180 219 192 180 174 172 182 182 179 179 182 182 180 184 184 182 184 185 190 191 195
343 343 344 343 343 341 339 340 341 343 347 354 358 16 45 24 2 321 323 299 260 234 247 247 233 241 253 262 272 14 354 305 270 273 236 199 157 148 186 176 162 195 193 181 193 192 165 209 228 208 190 188 203 203 204 227 238 242 229 251 264 243 263 232 186 276 195 179 227 186 170 190 183 183 180 175 179 187 186 184 188 188 187 188 188 192 193 196
344 342 342 342 343 341 338 339 341 342 350 357 7 57 51 17 342 316 311 292 268 230 236 243 239 245 244 247 253 258 343 290 283 283 240 190 161 163 178 172 185 201 188 181 184 197 209 225 225 199 177 182 207 207 202 222 230 238 227 237 260 244 265 268 210 256 208 182 230 177 177 206 194 183 179 181 187 191 190 187 187 186 187 190 191 193 195 193
344 342 342 342 343 340 337 339 340 342 350 350 347 14 353 344 341 334 315 274 280 237 219 234 231 239 241 241 238 212 212 233 250 273 215 165 171 176 169 177 189 190 184 188 191 199 215 229 209 181 170 185 220 227 208 236 238 230 225 215 248 245 244 266 241 231 203 201 210 179 180 209 194 186 188 192 195 194 194 194 191 188 187 190 192 192 192 189
343 342 342 341 342 341 338 337 339 346 345 342 315 329 343 339 346 349 338 249 284 249 217 229 219 230 238 225 188 176 201 207 200 246 213 166 163 156 170 184 178 186 202 195 199 213 226 231 183 169 181 189 213 231 211 230 247 239 230 213 242 246 216 230 278 360 283 250 204 152 132 226 181 188 201 201 203 203 200 198 199 200 197 194 194 193 192 189
341 340 340 341 342 340 337 338 351 345 339 341 358 338 339 340 346 347 341 250 286 269 232 231 214 231 224 182 167 172 197 218 202 220 188 167 172 151 174 185 171 196 203 190 198 223 234 224 163 173 196 197 208 226 213 210 235 255 240 217 235 248 231 234 302 19 346 301 264 148 155 263 200 194 203 195 201 208 201 199 203 205 204 202 199 197 196 194
339 338 338 340 340 340 341 346 341 337 333 332 343 336 337 339 340 338 338 328 291 260 202 195 182 203 183 159 162 143 123 239 217 208 182 178 183 165 169 173 169 203 193 180 200 229 219 187 165 184 197 201 210 224 215 198 213 252 233 198 228 246 243 242 220 78 239 269 261 180 179 234 210 204 207 194 200 205 199 202 206 204 203 204 202 199 198 197
338 336 337 339 340 341 344 321 324 333 329 305 328 334 334 334 336 334 352 347 297 217 165 177 184 180 167 162 160 138 149 228 188 200 197 186 181 165 178 173 165 199 174 154 217 213 174 172 187 196 191 201 212 220 210 185 200 245 220 169 224 238 231 235 201 179 229 262 286 239 197 203 202 209 206 197 202 206 203 206 207 206 206 205 204 202 200 198
337 335 337 337 337 340 336 309 321 323 303 313 325 329 329 330 332 337 106 338 284 178 150 198 171 164 150 159 168 168 223 164 131 205 188 181 183 158 186 192 177 184 165 166 209 191 159 179 195 196 196 209 210 211 201 183 209 245 216 186 231 230 217 217 192 200 231 250 271 259 218 226 256 224 203 198 201 206 209 210 208 206 208 207 206 204 203 202
337 334 336 336 335 338 337 315 306 304 314 324 324 323 324 323 328 90 98 269 266 336 147 157 127 144 110 153 190 224 299 106 271 188 153 176 205 174 192 198 178 179 176 186 206 190 169 191 192 190 205 216 207 207 198 190 218 238 201 221 263 252 216 193 190 192 174 194 239 244 204 206 269 242 188 194 204 208 211 213 211 209 208 208 207 205 204 202
336 333 334 336 334 335 333 316 303 313 324 322 317 319 320 318 22 108 222 235 283 305 193 102 42 119 126 147 205 246 267 311 322 109 127 167 198 196 214 157 150 167 183 200 212 210 215 202 184 188 210 208 188 203 205 199 214 216 170 230 274 280 279 233 190 148 153 222 235 237 211 187 249 251 188 189 200 205 208 212 215 214 212 210 208 206 204 200
334 331 332 334 333 331 325 315 322 326 318 316 320 322 321 332 85 155 220 246 307 284 34 34 26 35 110 173 230 239 239 297 323 142 143 151 168 190 205 137 141 154 194 218 222 218 233 229 192 199 203 191 177 205 214 202 211 211 154 175 245 287 315 298 291 126 208 240 234 232 216 190 227 250 208 200 199 199 203 206 209 211 212 211 209 207 203 200
331 330 329 332 332 326 311 319 338 335 322 325 327 324 16 97 254 215 236 330 339 306 19 17 2 352 308 276 271 217 220 263 240 170 171 171 176 190 196 186 171 172 200 213 204 212 227 221 221 241 203 183 177 201 218 207 207 205 172 159 185 251 269 236 234 201 222 246 238 218 203 202 230 231 208 206 203 202 205 206 206 207 209 209 207 207 203 200
330 328 328 332 334 326 322 345 350 340 329 329 319 339 87 169 235 208 230 287 298 51 33 7 331 313 280 289 278 199 197 250 241 194 188 184 185 196 203 204 188 177 187 189 179 188 229 232 221 228 229 187 176 183 205 212 204 198 188 172 178 196 211 221 236 263 255 261 249 206 186 213 250 229 207 202 204 206 206 208 209 207 206 206 204 203 201 199
329 328 329 334 339 345 357 359 352 339 328 326 314 99 117 212 235 191 213 256 293 24 28 351 323 306 258 250 242 172 164 245 231 197 197 187 190 202 203 206 201 181 122 151 180 186 205 232 214 206 203 179 187 196 189 180 193 205 187 172 195 198 189 203 206 218 240 257 261 216 182 199 215 221 205 197 205 208 205 209 212 210 208 205 202 200 199 200
329 327 331 335 344 9 6 352 346 340 329 330 271 172 196 209 233 218 207 289 316 357 355 332 315 315 315 275 273 37 31 264 213 196 203 190 200 205 197 201 200 184 142 167 195 188 204 234 228 208 198 173 191 203 175 162 198 209 168 178 210 190 169 222 213 185 194 246 251 221 207 216 218 243 217 197 207 209 207 212 213 213 211 202 200 201 201 203
330 329 334 336 347 3 352 344 344 338 323 10 233 209 224 224 203 223 339 4 339 342 341 333 357 13 338 308 336 14 7 340 241 215 217 197 211 209 201 203 193 191 187 182 197 171 196 236 223 190 210 200 195 190 176 179 191 181 169 193 202 171 181 227 250 218 131 242 247 209 230 265 271 274 248 203 207 209 210 216 214 213 206 194 198 202 203 204
332 329 329 330 349 356 345 340 342 326 178 37 239 227 274 295 272 303 15 43 340 346 356 359 4 351 325 317 341 9 356 340 5 358 254 212 225 206 204 213 197 200 199 188 221 191 178 248 229 177 210 224 202 195 204 194 174 163 194 192 165 181 206 200 211 248 228 237 265 235 213 215 197 249 249 196 203 213 214 217 217 214 203 196 202 204 205 204
328 323 314 311 346 348 341 340 342 219 150 21 256 268 320 299 315 332 352 5 337 339 2 253 269 294 356 345 328 356 354 341 3 358 312 263 276 206 200 204 197 203 201 192 226 225 174 256 267 198 202 218 195 196 233 230 208 209 198 175 156 188 211 181 180 221 217 228 272 273 230 213 200 223 214 193 202 210 213 215 217 215 205 201 207 208 207 204
328 321 301 330 346 345 342 342 349 150 136 215 234 273 299 290 309 308 316 334 327 305 297 224 229 314 359 349 323 339 346 324 328 339 328 305 311 314 277 226 206 202 198 192 202 214 176 208 264 227 196 199 184 187 214 231 229 229 173 178 179 176 192 188 181 192 199 220 254 271 261 236 225 207 184 194 206 207 209 211 214 214 208 206 209 209 205 200
334 314 240 338 347 346 344 345 90 137 128 222 217 271 294 304 304 301 309 318 312 284 290 280 309 322 328 326 319 319 309 298 306 303 297 319 319 350 12 2 322 253 208 200 196 199 186 192 234 271 211 198 191 193 204 209 214 214 198 200 204 185 179 198 203 173 171 191 204 234 255 252 247 208 182 192 205 207 209 209 213 215 209 209 212 209 201 197
328 260 272 338 348 346 345 356 108 98 269 253 290 276 284 297 290 293 297 292 287 262 246 271 281 276 283 303 302 291 282 283 283 266 262 293 278 307 29 26 4 342 267 219 205 199 189 178 208 236 233 209 208 206 201 201 204 204 206 206 200 185 140 179 230 254 154 187 183 198 249 260 250 202 189 196 204 210 212 210 216 218 211 212 215 211 200 196
307 262 297 331 345 344 345 37 54 357 335 321 331 311 309 315 298 297 294 286 281 251 236 257 259 259 264 269 272 280 289 278 267 259 232 246 252 259 13 12 1 343 328 282 244 216 199 177 202 224 230 218 219 216 201 202 205 204 207 203 188 179 158 183 219 224 194 222 175 170 249 266 252 204 191 198 204 211 211 207 214 221 218 218 218 212 203 199
274 291 297 327 343 338 344 69 17 7 2 334 337 328 323 328 324 327 329 325 317 285 271 264 248 266 275 274 290 299 320 304 270 274 263 277 313 35 22 9 358 349 355 352 340 307 242 206 200 226 254 248 238 246 236 207 200 203 212 197 189 202 198 192 194 171 192 212 166 200 251 266 265 224 205 205 205 219 218 204 212 220 221 223 219 212 205 202
295 286 285 333 342 338 8 61 10 356 337 339 345 334 328 336 339 338 334 328 324 307 301 296 296 328 327 336 335 315 344 337 302 5 351 302 332 22 22 8 356 352 356 349 354 351 305 245 196 206 236 244 245 254 257 224 194 204 214 204 206 206 192 184 146 143 212 206 166 192 237 246 271 295 257 216 192 238 240 209 213 223 223 227 224 215 207 201
309 275 232 328 339 348 57 41 12 352 333 342 343 334 341 341 328 332 325 310 311 323 314 304 312 319 321 348 355 330 335 320 326 8 354 320 323 353 11 1 343 330 337 345 352 337 262 257 229 212 216 219 216 218 221 204 188 214 217 210 211 201 187 184 153 168 229 217 166 188 221 251 285 315 305 233 192 234 256 221 208 223 225 226 221 211 207 201
322 314 287 326 340 6 28 8 17 356 336 342 335 328 344 332 315 330 330 314 339 354 328 297 311 327 349 8 357 326 338 341 331 330 324 336 332 330 357 347 322 324 345 354 357 339 244 242 251 240 238 233 217 208 199 173 185 213 215 210 211 203 193 183 171 193 199 179 196 209 193 219 272 282 286 266 228 236 250 223 203 218 220 216 208 199 198 200
297 304 319 340 337 344 352 1 15 353 333 335 326 309 324 319 312 333 337 327 349 350 322 302 9 17 5 5 352 318 334 339 326 318 325 338 316 309 336 328 306 345 357 356 353 342 298 288 278 265 272 264 239 219 194 178 199 210 205 205 208 206 198 193 205 200 152 160 225 219 181 199 245 252 256 261 251 249 249 230 215 221 217 215 214 204 197 197
284 292 326 339 314 323 338 328 332 333 324 324 312 287 307 318 323 334 338 332 338 345 336 331 5 3 348 351 350 313 328 338 323 322 334 333 319 322 338 329 324 360 3 352 343 346 287 266 288 304 306 297 269 236 208 191 200 197 195 202 202 204 203 205 212 190 157 191 220 188 179 202 223 237 242 242 238 240 247 243 236 235 227 219 214 207 204 203
281 275 305 333 304 300 302 300 311 320 318 319 309 284 308 325 326 324 332 331 319 331 350 326 332 342 337 336 336 305 316 325 308 319 324 321 327 332 332 327 343 9 0 341 330 336 285 263 310 327 315 305 282 246 223 213 207 196 199 200 196 204 209 210 212 193 184 209 206 171 190 208 210 217 228 236 238 232 246 272 270 245 233 219 205 201 204 207
279 304 312 327 290 276 272 280 302 314 310 310 299 291 314 322 316 319 324 316 299 300 353 335 323 328 326 324 323 297 287 292 285 299 306 303 320 329 312 318 339 347 343 329 318 341 346 298 316 333 320 303 285 248 228 224 219 214 216 206 199 207 210 209 210 195 196 218 206 176 198 221 234 227 223 240 266 286 264 263 250 233 227 215 204 204 207 207
265 289 291 298 295 289 284 287 300 300 297 298 293 309 321 310 306 317 310 292 280 282 330 333 318 316 319 322 314 294 289 297 295 294 290 282 284 282 268 289 318 326 327 313 301 323 336 298 310 337 326 297 293 263 234 227 224 227 228 216 206 207 210 211 202 182 193 209 205 189 201 230 249 236 231 257 266 205 243 260 260 254 239 217 209 211 211 207
262 283 265 252 291 294 290 287 282 278 285 292 304 313 312 298 301 315 308 293 290 298 319 322 312 311 317 312 302 299 308 311 298 292 286 271 264 260 258 259 263 270 279 293 295 276 249 284 307 336 316 286 302 305 267 229 218 234 230 216 207 201 204 216 204 187 197 199 198 208 210 219 226 202 205 242 233 198 223 298 303 305 289 239 229 227 220 209
Height
809 807 805 803 801 799 797 795 794 792 790 788 787 785 783 782 781 779 778 776 775 772 771 769 767 765 763 761 759 756 754 751 749 749 747 733 728 733 734 736 738 740 742 744 746 749 752 755 756 757 761 763 764 763 763 763 762 771 782 793 794 787 779 766 760 758 755 755 755 753 752 760 767 764 759 761 767 768 772 773 771 771 769 772 775 777 781 784
809 807 805 803 801 799 797 795 793 791 789 787 785 784 782 781 779 778 776 775 773 771 770 767 765 764 762 761 758 755 753 749 747 745 736 726 727 729 729 731 736 738 739 742 743 745 751 754 755 757 761 765 764 762 764 761 762 773 780 788 787 777 767 755 753 751 749 752 751 751 751 754 759 761 758 767 777 772 776 779 775 778 776 775 776 779 783 783
809 807 805 803 801 798 796 794 792 789 787 786 784 782 781 779 777 776 774 773 772 770 768 766 764 762 761 760 757 755 753 750 747 737 725 723 725 724 724 727 731 735 737 739 742 744 747 751 753 757 763 766 763 762 765 760 761 768 774 786 777 762 759 750 748 747 745 746 748 752 751 752 755 754 758 768 777 775 777 778 777 783 781 778 778 779 782 784
809 807 805 802 800 798 795 793 791 788 786 784 782 781 779 777 776 774 772 771 770 768 766 764 763 761 760 758 756 755 752 753 743 727 722 723 722 720 721 723 727 732 735 738 741 744 745 749 753 756 763 769 764 762 766 760 760 763 768 775 763 754 757 748 744 742 741 744 746 751 753 756 754 751 758 765 777 781 775 769 768 774 775 776 777 778 781 783
809 807 804 802 800 797 795 792 790 787 785 783 781 779 777 775 774 772 771 769 767 767 765 763 761 759 759 757 756 754 755 758 738 720 722 722 720 718 718 720 724 729 733 738 740 743 746 748 753 758 764 768 767 766 765 755 754 761 759 758 751 752 756 744 739 739 739 743 745 750 755 756 753 754 757 760 772 773 764 760 759 762 765 768 772 775 779 781
808 806 804 801 799 797 794 792 789 787 784 781 779 777 775 773 771 770 769 767 766 765 763 761 759 759 758 756 756 753 757 756 731 719 723 720 720 719 718 719 723 728 732 737 739 742 746 748 755 762 764 765 767 765 760 750 752 763 758 749 748 749 751 742 738 738 737 745 749 749 748 748 754 759 755 754 757 752 747 752 756 758 759 763 768 773 777 779
807 805 802 800 797 795 792 790 788 785 783 780 778 775 773 771 768 767 765 765 764 762 761 759 758 757 756 756 755 754 757 747 723 720 722 720 722 720 721 722 723 729 731 735 738 742 746 749 755 758 762 765 764 760 756 751 751 762 760 750 746 745 745 738 736 737 736 743 744 741 744 749 756 757 754 754 749 743 745 750 755 759 760 763 767 771 775 777
806 803 801 798 796 793 791 788 786 783 781 778 776 774 771 769 766 764 762 762 760 760 759 757 757 756 755 756 755 756 755 736 718 720 721 720 722 720 723 724 725 728 730 734 735 739 744 750 753 753 762 762 757 756 753 755 756 759 758 750 744 742 739 733 733 735 734 737 737 740 748 749 747 747 752 754 748 745 747 751 756 761 764 766 767 770 773 776
805 802 799 797 794 792 789 786 783 781 778 776 774 771 769 766 764 761 760 759 757 758 756 755 755 754 755 755 756 757 743 722 717 720 719 719 720 721 723 723 726 727 729 732 732 737 742 747 749 748 757 756 753 753 751 759 761 753 751 747 743 740 735 732 732 732 731 733 734 742 750 748 741 744 754 753 748 747 747 753 758 762 766 768 769 769 771 774
804 801 799 796 793 790 787 784 781 778 776 773 770 768 766 763 761 758 756 755 754 754 753 753 753 753 756 753 757 756 730 715 720 719 718 719 720 721 722 723 725 725 727 730 731 736 738 741 743 741 750 752 750 750 750 757 754 743 744 743 739 738 733 731 732 727 728 730 731 741 750 749 742 748 761 754 746 748 751 757 759 762 767 768 769 769 770 773
804 801 798 795 792 789 786 783 779 776 773 769 767 764 762 760 758 755 753 751 750 750 750 750 750 752 753 752 756 747 721 716 720 717 718 719 720 722 721 722 723 724 726 729 731 732 733 735 736 741 750 749 747 749 747 745 742 739 741 742 738 736 734 730 729 726 727 732 729 735 748 751 747 750 755 749 745 747 752 759 760 764 767 767 769 770 770 772
803 800 797 794 791 788 784 781 777 773 769 766 763 759 757 756 753 751 748 747 746 747 747 747 749 750 751 753 747 728 715 717 717 716 718 718 720 721 721 722 722 723 724 727 730 728 730 732 734 744 746 744 749 753 745 737 738 739 740 747 743 736 736 729 726 724 726 733 727 733 757 761 754 751 747 744 745 747 753 759 761 764 767 767 769 770 771 772
802 799 796 793 790 787 783 780 775 772 767 763 758 755 753 750 749 746 743 742 742 743 743 744 747 747 751 746 727 714 714 716 716 716 716 717 719 719 720 722 721 723 723 724 726 725 728 730 734 740 738 742 751 746 738 733 738 742 741 747 748 747 742 726 722 723 725 731 721 732 768 772 756 749 745 743 745 750 757 760 761 765 766 768 769 770 772 771
802 798 795 792 788 785 781 778 774 770 765 760 755 752 750 746 744 740 738 737 737 739 740 743 745 748 749 733 713 712 715 713 715 713 712 715 716 718 719 720 721 723 723 723 723 724 727 729 732 737 736 740 743 738 740 742 742 745 747 748 753 760 749 727 722 726 731 731 717 731 767 768 755 751 745 742 744 749 758 760 761 764 766 767 768 770 771 769
800 797 794 791 788 784 780 776 772 768 763 758 753 749 746 743 739 736 735 734 735 737 738 742 744 747 746 728 711 712 712 711 710 706 708 712 714 716 716 718 720 721 723 723 723 725 726 729 735 741 740 735 738 747 753 753 747 747 756 759 758 760 751 733 723 725 732 731 720 734 763 764 754 751 743 741 744 747 755 759 759 762 764 766 767 768 770 769
799 796 792 789 786 783 779 775 770 766 761 755 751 747 744 741 737 736 735 733 735 737 739 744 743 745 745 726 711 710 709 708 706 704 707 708 710 712 713 716 718 720 723 722 723 726 726 730 735 738 739 738 745 755 760 763 758 753 759 764 760 758 756 744 728 719 723 729 729 736 755 761 754 749 744 742 745 748 754 757 758 760 761 763 766 767 768 769
798 795 791 788 785 781 778 773 770 765 758 754 749 745 742 740 738 737 736 736 739 739 741 743 742 746 736 714 709 711 707 705 704 704 705 704 707 708 711 716 717 719 721 722 724 727 729 732 735 736 738 742 746 754 767 776 771 762 760 761 757 754 756 752 738 723 720 729 735 737 745 753 748 745 745 743 744 749 754 756 756 757 759 761 763 766 767 768
798 794 790 786 783 780 776 772 768 763 757 753 749 744 742 741 740 739 738 739 740 741 744 742 744 747 729 709 710 709 703 703 703 703 703 703 705 707 710 713 715 719 724 728 728 729 733 733 737 743 744 745 747 754 770 772 765 764 762 761 758 753 753 755 745 730 725 731 738 743 747 749 747 745 745 743 743 748 751 752 753 754 756 759 761 763 764 764
798 794 790 785 781 778 774 770 766 762 757 751 748 744 742 742 741 740 739 740 743 743 741 739 740 736 720 707 707 704 702 703 702 701 700 701 704 707 709 710 713 720 730 737 735 731 734 738 742 748 748 748 748 750 757 755 752 756 756 757 758 755 752 749 741 727 725 737 742 745 748 749 750 749 746 744 743 748 751 751 753 754 754 756 759 760 760 761
797 793 790 785 780 776 772 769 765 762 758 753 748 744 746 749 747 744 741 739 741 738 732 731 730 722 712 705 704 704 703 702 702 700 698 699 701 707 711 712 716 724 731 738 738 729 731 744 748 746 746 745 744 744 745 746 746 750 753 755 754 756 753 744 738 725 721 738 744 741 746 748 748 746 743 743 745 750 753 754 754 753 753 754 756 757 757 756
796 793 789 785 780 775 771 768 764 761 759 756 751 750 755 761 762 758 749 737 730 730 727 722 721 717 708 703 702 705 708 706 702 697 698 698 699 710 716 716 725 732 731 732 734 728 731 745 745 739 740 738 739 740 741 744 745 749 752 755 755 755 750 739 735 726 720 737 744 740 748 750 745 743 741 742 747 749 748 750 751 750 750 750 751 753 752 751
796 792 788 785 780 775 770 767 764 761 760 758 756 757 760 764 766 764 759 744 724 721 722 714 714 711 701 699 700 706 715 715 706 695 694 698 701 712 716 719 729 733 730 730 734 738 741 743 737 733 734 734 736 737 740 743 745 749 750 755 757 751 746 739 733 727 724 737 744 742 750 751 743 740 740 740 740 740 738 738 741 743 746 747 747 749 749 750
795 790 788 784 780 776 770 766 764 761 760 759 759 760 761 762 762 759 760 751 725 711 711 707 708 703 695 697 697 705 716 715 710 698 689 696 702 707 713 720 728 730 730 733 737 744 747 738 729 729 730 734 739 738 740 744 745 748 749 755 755 745 747 748 737 730 727 731 736 740 748 750 746 745 743 738 735 735 735 734 735 736 739 739 739 741 744 747
793 790 787 783 779 775 769 765 763 761 760 759 759 760 760 760 758 756 755 749 727 707 699 695 695 693 687 689 692 700 707 703 703 695 684 692 701 702 708 714 723 730 729 729 733 739 739 728 721 726 730 734 740 740 742 748 749 747 745 750 749 741 745 746 738 733 729 728 728 737 755 756 751 754 750 741 738 738 738 739 740 738 735 734 734 736 738 740
792 790 786 781 779 773 768 765 761 763 760 758 759 758 757 757 755 756 754 748 732 708 695 689 688 684 677 683 689 691 698 696 690 685 679 685 693 699 705 705 715 728 727 726 733 735 731 722 718 727 731 732 739 741 741 745 751 749 741 739 739 737 740 741 739 739 744 746 732 737 769 771 752 752 751 744 744 743 740 741 742 739 737 737 737 736 735 735
791 789 785 783 779 772 767 764 763 765 760 758 758 755 755 753 752 754 754 754 737 707 693 688 685 679 673 682 685 686 702 696 677 675 677 679 682 689 703 706 708 719 720 723 730 728 723 719 718 726 731 733 738 740 736 738 752 753 735 728 732 734 739 741 742 746 755 755 734 730 762 772 758 753 748 743 745 742 739 740 739 737 737 736 735 733 733 733
791 787 784 783 779 775 772 769 768 767 763 760 756 754 753 749 751 750 750 760 736 696 689 690 683 676 672 678 679 686 702 687 671 675 673 676 677 681 700 709 708 712 710 720 732 722 713 719 722 723 729 734 738 738 731 732 748 747 726 724 730 733 738 740 742 749 748 745 738 730 742 761 763 753 741 738 744 744 741 739 736 734 733 731 729 728 728 728
791 786 784 782 779 779 777 774 772 767 765 761 755 755 751 748 752 747 754 764 722 678 680 684 676 670 670 677 676 679 682 674 677 677 665 672 679 681 700 705 705 709 703 716 734 716 706 718 721 721 730 733 731 728 724 728 739 734 720 723 726 728 734 734 740 748 743 746 755 741 737 758 762 744 734 737 745 748 743 737 732 729 728 726 725 724 723 723
790 785 783 781 777 777 776 775 773 767 763 759 756 754 749 750 749 745 763 761 707 671 674 674 674 674 676 683 681 678 674 671 678 672 665 675 677 680 696 696 698 707 703 708 721 712 704 708 709 716 726 726 722 719 717 725 731 723 718 722 723 725 730 732 739 745 746 757 763 745 740 759 760 741 738 744 746 745 738 730 726 723 721 720 720 720 719 720
790 784 782 781 776 774 772 771 769 764 761 759 757 752 748 750 748 757 774 750 700 680 675 673 681 682 683 691 689 684 681 677 673 670 673 679 678 681 687 687 693 705 707 706 710 707 701 697 699 708 713 712 713 714 714 718 719 717 722 728 730 731 730 734 736 740 755 766 757 739 735 749 758 743 734 735 731 729 728 726 724 719 717 716 714 714 714 716
789 783 780 781 779 775 773 769 765 764 761 759 756 751 749 750 753 767 763 723 694 687 679 683 691 688 690 695 694 689 686 683 675 676 682 683 687 692 690 693 700 708 716 715 712 708 703 704 703 699 697 700 709 713 712 711 712 719 727 733 741 743 739 742 743 746 765 768 746 732 729 742 754 739 722 718 711 709 715 716 716 714 712 710 708 708 708 710
787 782 778 779 778 775 774 770 764 763 761 758 757 751 751 757 760 759 738 707 699 697 692 698 699 695 695 693 692 690 688 687 677 677 683 684 691 694 692 697 700 714 727 721 717 715 710 707 702 696 692 694 708 719 718 714 715 723 730 737 753 761 758 760 759 756 763 756 734 726 730 740 740 720 707 708 702 699 700 699 700 701 701 702 702 702 703 705
785 780 777 777 775 773 772 768 765 764 760 759 759 752 754 764 758 740 726 714 707 701 701 706 701 698 697 694 691 686 687 689 681 678 679 680 689 690 688 689 688 703 716 714 719 723 720 711 701 702 698 690 700 717 724 722 719 724 731 738 754 766 773 777 769 762 759 746 727 721 730 738 729 707 695 697 694 688 687 687 687 687 689 691 692 694 697 700
784 778 776 774 773 772 770 768 766 763 761 761 758 755 760 764 747 727 724 718 706 703 708 709 704 698 693 692 688 680 686 689 680 681 683 683 691 693 691 689 685 691 701 710 718 720 728 724 704 700 698 689 693 701 707 712 715 718 718 727 741 748 760 769 764 760 756 743 731 729 734 733 722 701 683 681 682 678 677 678 677 678 679 681 684 689 694 696
783 777 776 773 771 772 769 769 767 763 764 762 758 758 757 751 738 726 725 721 714 714 714 709 705 702 696 692 684 679 686 687 678 681 685 686 689 689 688 687 685 687 696 711 714 708 720 717 691 685 685 683 691 690 689 702 715 713 708 721 732 729 734 744 743 740 740 739 734 731 728 715 701 687 673 673 676 674 675 674 674 677 678 680 687 690 691 692
782 775 774 772 771 771 769 768 766 763 765 764 761 759 749 738 732 728 725 724 724 724 721 713 708 710 709 699 692 691 690 688 684 684 684 684 685 682 682 680 679 682 687 699 706 705 715 709 684 682 684 679 684 684 682 695 709 709 711 720 717 708 716 734 740 732 734 745 736 721 717 708 698 689 676 674 678 677 677 675 675 678 678 682 687 687 686 686
783 775 774 772 770 770 768 766 765 764 765 767 765 755 744 736 731 728 727 727 728 726 727 728 720 717 718 710 704 704 699 693 692 693 691 687 682 677 677 675 672 675 677 685 693 694 702 704 685 681 689 679 673 679 679 680 689 703 713 710 703 706 711 724 741 740 741 750 736 717 714 711 709 701 683 679 684 681 679 677 676 677 679 682 682 680 679 678
785 779 776 773 771 769 767 764 763 763 765 770 768 756 746 740 732 729 729 728 730 729 732 738 728 718 721 723 717 710 709 707 703 704 702 693 682 673 674 675 671 670 670 676 687 685 690 704 692 677 684 678 669 682 692 681 675 687 695 691 698 719 724 724 735 740 745 751 736 720 714 708 706 698 684 683 685 680 678 677 677 677 678 679 677 674 673 674
788 783 777 773 771 768 764 761 760 762 765 771 772 761 750 743 735 731 729 729 731 730 732 734 727 721 725 727 723 716 715 715 712 711 708 698 687 676 672 672 669 668 666 670 682 681 683 701 700 679 674 676 675 686 698 693 681 680 687 687 690 704 712 716 720 722 732 744 738 728 721 707 694 684 676 677 677 675 675 674 674 673 671 671 669 667 669 672
790 788 779 772 770 767 762 759 759 764 768 767 766 760 751 746 739 732 729 730 730 729 731 731 729 730 728 725 724 720 716 714 713 714 709 700 693 687 683 682 678 673 665 663 671 675 679 694 700 686 675 679 684 683 685 688 688 688 695 697 694 693 697 704 709 707 713 728 734 734 726 702 681 671 665 664 666 667 668 668 667 664 662 662 660 659 662 666
793 792 781 771 770 767 761 759 761 765 767 763 760 757 752 747 741 735 731 730 730 728 728 729 730 731 729 727 725 720 715 713 711 712 711 705 699 696 695 695 693 686 676 670 669 671 678 688 694 690 683 685 681 669 666 672 676 682 689 691 691 693 698 710 718 709 702 710 716 721 722 697 669 663 658 655 658 659 659 661 661 658 657 655 652 652 655 658
796 793 781 772 771 768 764 764 764 765 766 763 760 756 751 746 743 740 733 730 730 727 724 726 727 726 725 725 721 717 716 714 710 709 708 702 696 696 699 697 694 689 684 682 673 664 667 678 688 687 679 677 670 658 658 661 662 669 677 679 683 687 693 706 716 709 701 704 702 706 713 690 660 655 652 647 651 652 652 655 656 655 653 650 648 648 650 652
796 790 779 773 772 769 769 771 771 772 770 765 762 757 752 748 745 742 737 736 733 728 726 725 723 722 721 720 719 719 718 715 710 705 703 700 695 698 702 700 695 689 686 688 683 672 669 672 683 687 676 667 662 657 656 656 660 669 672 671 675 679 680 685 693 697 697 700 701 708 714 688 656 652 652 644 645 649 650 651 652 651 648 646 645 645 647 649
794 788 779 775 772 770 773 777 780 780 774 768 765 759 753 750 748 746 744 742 737 732 731 727 723 723 722 719 720 720 720 720 715 708 709 710 703 700 703 703 701 696 693 694 692 690 689 680 680 692 695 687 681 676 671 665 665 670 669 666 665 668 673 678 684 691 694 693 695 704 709 686 656 652 654 647 645 648 649 648 648 648 646 644 644 644 646 647
793 788 781 777 773 772 775 777 781 782 777 772 770 764 759 755 751 749 747 742 737 736 735 730 724 723 722 720 721 720 720 722 721 716 715 716 710 704 705 707 705 701 696 693 690 692 697 687 679 689 699 699 695 688 679 672 668 666 663 661 661 663 670 678 685 694 698 694 690 692 695 680 657 651 652 648 644 646 647 647 646 645 644 643 643 645 646 647
797 793 786 781 776 775 777 776 778 783 779 776 775 767 764 761 753 748 746 742 738 738 737 731 724 725 726 727 728 727 723 722 724 722 719 720 717 710 709 709 706 702 697 692 690 690 691 684 678 680 682 679 675 669 660 659 664 666 662 660 660 660 663 671 682 689 691 693 690 681 678 675 664 655 653 648 645 643 643 644 644 642 642 640 639 640 642 644
800 797 792 789 785 782 781 778 780 784 780 779 778 771 767 765 757 750 747 745 742 741 738 732 728 732 735 734 734 733 729 727 727 725 723 723 720 713 711 709 705 701 697 695 693 693 695 691 681 675 673 665 659 654 648 648 653 657 658 658 657 657 659 666 674 674 676 688 691 676 669 673 667 656 652 649 646 643 639 638 639 638 637 636 635 635 637 639
800 797 792 793 794 791 787 784 782 784 781 778 776 771 767 766 762 757 752 748 746 745 743 738 735 737 738 736 738 737 734 733 730 726 725 725 721 717 713 709 705 701 700 701 698 697 703 700 683 676 676 668 658 650 644 643 644 646 650 652 651 654 658 660 663 663 665 673 677 668 665 668 662 653 649 645 641 641 638 636 636 636 635 634 634 635 636 636
799 797 792 792 795 794 791 788 785 784 782 778 775 771 769 769 768 762 756 754 752 748 748 749 745 742 741 738 738 739 738 737 734 730 728 727 725 724 720 715 710 704 705 707 701 698 703 699 685 682 682 672 659 650 643 641 642 642 644 645 644 646 650 651 655 658 657 656 659 658 659 659 652 645 641 637 634 636 637 637 636 635 634 633 634 634 634 634
799 798 796 795 795 792 790 789 787 786 783 779 777 773 770 771 771 766 761 760 758 751 749 753 749 745 745 742 739 739 735 734 734 732 730 729 728 726 724 720 715 711 711 711 705 701 704 701 688 684 687 677 656 645 643 642 643 643 643 642 641 641 642 645 649 656 658 656 655 656 659 657 648 639 635 634 635 636 636 634 633 631 631 631 632 632 630 629
798 797 797 798 796 790 789 788 787 789 786 781 778 774 772 772 770 769 765 758 753 751 748 750 749 745 744 743 741 737 731 729 731 730 727 727 726 724 723 719 718 719 717 713 709 706 706 704 693 690 697 684 657 647 646 640 643 649 644 639 639 639 639 639 641 648 652 654 656 661 664 658 644 635 637 638 638 638 635 632 630 630 631 631 630 629 627 626
797 796 796 799 796 789 789 789 787 789 786 779 776 774 774 771 766 769 770 757 747 748 747 746 747 746 745 745 742 736 731 729 728 725 723 722 719 718 718 715 716 720 719 715 713 708 706 707 700 699 702 687 666 660 651 645 659 660 638 627 630 633 635 636 637 639 638 640 650 655 653 644 633 632 637 638 637 637 636 635 634 631 630 630 630 627 626 624